Tracking 33199 objects as of 16-Feb-2026
HD Live streaming from Space Station
objects crossing your sky now

FENGYUN 1C DEB

Track FENGYUN 1C DEB now!
10-day predictions


NORAD ID: 33716
Int'l Code: 1999-025DHD
Perigee: 723.0 km
Apogee: 856.5 km
Inclination: 98.9 °
Period: 100.5 minutes
Semi major axis: 7160 km
RCS: 0.0093 m2 (small)
Launch date: May 10, 1999
Source: People's Republic of China (PRC)
Launch site: Taiyaun Space Center, China (TSC)

Note: This is SATELLITE DEBRIS
Your satellite tracking list
Your tracking list is empty




NASA's NSSDC Master Catalog

Two Line Element Set (TLE):
1 33716U 99025DHD 26041.61382120  .00000324  00000-0  12995-3 0  9999
2 33716  98.8777 333.6385 0093243 181.3517 178.7428 14.32741142660150
Source of the keplerian elements: AFSPC